TimeCDT,TemperatureF,Dew PointF,Humidity,Sea Level PressureIn,VisibilityMPH,Wind Direction,Wind SpeedMPH,Gust SpeedMPH,PrecipitationIn,Events,Conditions,WindDirDegrees,DateUTC
12:50 AM,50.0,46.4,87,29.96,5.0,East,10.4,-,0.15,Rain,Rain,100,2013-10-15 05:50:00
12:53 AM,50.0,46.9,89,29.96,5.0,East,9.2,-,0.15,Rain,Rain,100,2013-10-15 05:53:00
1:07 AM,48.2,46.4,93,29.94,5.0,East,13.8,-,0.03,Rain,Light Rain,90,2013-10-15 06:07:00
1:53 AM,48.9,46.0,90,29.92,3.0,East,13.8,-,0.19,Rain,Rain,100,2013-10-15 06:53:00
2:16 AM,48.2,46.4,93,29.92,4.0,East,15.0,-,0.07,Rain,Rain,100,2013-10-15 07:16:00
2:53 AM,48.9,46.0,90,29.86,5.0,East,16.1,23.0,0.21,Rain,Rain,100,2013-10-15 07:53:00
3:35 AM,48.2,46.4,93,29.86,10.0,SE,11.5,20.7,0.01,,Overcast,140,2013-10-15 08:35:00
3:53 AM,48.9,46.0,90,29.83,10.0,ESE,16.1,23.0,0.01,,Overcast,110,2013-10-15 08:53:00
4:07 AM,48.2,46.4,93,29.80,10.0,ESE,12.7,21.9,0.00,Rain,Light Rain,110,2013-10-15 09:07:00
4:53 AM,48.9,46.0,90,29.79,5.0,ESE,11.5,19.6,0.03,Rain,Rain,120,2013-10-15 09:53:00
5:53 AM,50.0,46.9,89,29.76,7.0,ESE,9.2,-,0.04,,Overcast,120,2013-10-15 10:53:00
6:53 AM,50.0,48.0,93,29.73,10.0,ESE,9.2,-,0.00,,Overcast,120,2013-10-15 11:53:00
7:53 AM,52.0,48.9,89,29.72,3.0,SE,10.4,18.4,N/A,,Overcast,140,2013-10-15 12:53:00
8:20 AM,51.8,50.0,94,29.72,3.0,SE,10.4,-,0.00,Rain,Light Rain,140,2013-10-15 13:20:00
8:53 AM,53.1,50.0,89,29.71,3.0,SE,8.1,-,0.00,,Overcast,140,2013-10-15 13:53:00
9:37 AM,53.6,51.8,94,29.70,3.0,SE,10.4,-,N/A,,Overcast,140,2013-10-15 14:37:00
9:53 AM,54.0,51.1,90,29.69,3.0,SE,10.4,-,N/A,,Overcast,140,2013-10-15 14:53:00
10:53 AM,55.0,52.0,89,29.69,4.0,SE,10.4,-,N/A,,Overcast,140,2013-10-15 15:53:00
10:57 AM,55.4,51.8,88,29.69,4.0,SSE,9.2,-,N/A,,Overcast,160,2013-10-15 15:57:00
11:40 AM,53.6,51.8,94,29.69,2.5,South,10.4,20.7,0.00,Rain,Light Rain,190,2013-10-15 16:40:00
11:53 AM,53.1,52.0,96,29.70,2.0,South,8.1,-,0.01,Rain,Light Rain,180,2013-10-15 16:53:00
12:01 PM,53.6,51.8,94,29.70,3.0,South,10.4,-,0.00,Rain,Light Rain,180,2013-10-15 17:01:00
12:15 PM,53.6,51.8,94,29.69,10.0,South,6.9,-,0.00,,Overcast,180,2013-10-15 17:15:00
12:40 PM,51.8,50.0,94,29.70,2.0,South,12.7,-,0.00,Rain,Light Rain,190,2013-10-15 17:40:00
12:53 PM,52.0,48.9,89,29.70,2.0,SSW,11.5,-,0.00,Rain,Light Rain,200,2013-10-15 17:53:00
12:58 PM,51.8,48.2,88,29.70,1.8,South,9.2,-,0.00,Rain,Light Rain,190,2013-10-15 17:58:00
1:05 PM,51.8,48.2,88,29.70,2.0,South,11.5,-,0.01,Rain,Light Rain,180,2013-10-15 18:05:00
1:17 PM,51.8,48.2,88,29.70,2.0,South,10.4,-,0.01,Rain,Light Rain,190,2013-10-15 18:17:00
1:26 PM,51.8,48.2,88,29.70,3.0,SSW,9.2,-,0.01,Rain,Light Rain,200,2013-10-15 18:26:00
1:28 PM,51.8,48.2,88,29.70,2.5,SSW,9.2,-,0.01,Rain,Light Rain,210,2013-10-15 18:28:00
1:37 PM,51.8,48.2,88,29.70,3.0,SSW,11.5,-,0.01,Rain,Light Rain,200,2013-10-15 18:37:00
1:53 PM,51.1,48.0,89,29.70,3.0,SW,11.5,-,0.02,Rain,Light Rain,220,2013-10-15 18:53:00
2:01 PM,51.8,48.2,88,29.70,2.0,SW,9.2,-,0.01,Rain,Light Rain,220,2013-10-15 19:01:00
2:39 PM,51.8,48.2,88,29.70,2.0,SSW,9.2,-,0.05,Rain,Light Rain,210,2013-10-15 19:39:00
2:53 PM,51.1,48.0,89,29.70,2.0,SSW,9.2,-,0.05,Rain,Light Rain,200,2013-10-15 19:53:00
3:02 PM,50.0,46.4,87,29.71,6.0,SSW,11.5,-,0.00,Rain,Light Rain,210,2013-10-15 20:02:00
3:18 PM,50.0,46.4,87,29.71,10.0,SSW,6.9,-,0.01,Rain,Light Rain,210,2013-10-15 20:18:00
3:53 PM,51.1,46.9,86,29.71,10.0,SW,9.2,-,0.01,,Overcast,220,2013-10-15 20:53:00
4:05 PM,51.8,46.4,82,29.72,10.0,SW,6.9,-,N/A,,Overcast,220,2013-10-15 21:05:00
4:42 PM,51.8,46.4,82,29.72,10.0,SW,6.9,-,N/A,,Overcast,230,2013-10-15 21:42:00
4:53 PM,51.1,46.0,83,29.72,10.0,SSW,8.1,-,N/A,,Overcast,200,2013-10-15 21:53:00
5:53 PM,50.0,46.0,86,29.73,10.0,SW,5.8,-,N/A,,Overcast,220,2013-10-15 22:53:00
6:44 PM,48.2,46.4,93,29.73,7.0,SSW,3.5,-,N/A,,Overcast,210,2013-10-15 23:44:00
6:53 PM,48.9,46.9,93,29.73,8.0,Calm,Calm,-,N/A,,Overcast,0,2013-10-15 23:53:00
7:53 PM,48.9,46.9,93,29.75,4.0,Calm,Calm,-,N/A,,Overcast,0,2013-10-16 00:53:00
8:21 PM,48.2,46.4,93,29.75,2.0,West,4.6,-,N/A,,Overcast,260,2013-10-16 01:21:00
8:53 PM,50.0,48.0,93,29.77,2.0,NW,10.4,-,N/A,,Overcast,320,2013-10-16 01:53:00
9:07 PM,50.0,48.2,94,29.77,6.0,NNW,11.5,-,N/A,,Overcast,330,2013-10-16 02:07:00
9:39 PM,50.0,46.4,87,29.78,10.0,NNW,15.0,24.2,N/A,,Overcast,340,2013-10-16 02:39:00
9:53 PM,48.9,46.0,90,29.78,10.0,North,13.8,23.0,N/A,,Overcast,350,2013-10-16 02:53:00
10:53 PM,48.0,45.0,89,29.81,7.0,North,17.3,25.3,N/A,,Overcast,350,2013-10-16 03:53:00
11:53 PM,48.0,44.1,86,29.83,10.0,NNW,12.7,21.9,N/A,,Overcast,340,2013-10-16 04:53:00